EA5AFP-10 Weather Reports


Display with metric or nautical units.
time (UTC)temp
F
wind
direction
speed
MPH
gust
MPH
rain 1hr
in
rain 24hr
in
rain mn
in
humidity
%
barometer
mb
20260510061441 57 247 1.0 2.0 0.00 0.00 0.00 9 1010.2
20260510061249 57 247 1.0 2.0 0.00 0.00 0.00 9 1010.1
20260510060947 57 292 0.0 1.0 0.00 0.00 0.00 9 1010.3
20260510060456 57 270 2.0 2.0 0.00 0.00 0.00 9 1010.3
20260510060008 56 292 2.0 3.0 0.00 0.00 0.00 9 1010.0
20260510055557 56 292 1.0 2.0 0.00 0.00 0.00 9 1010.1
20260510055555 56 292 1.0 2.0 0.00 0.00 0.00 9 1010.1
20260510055345 56 292 2.0 3.0 0.00 0.00 0.00 9 1010.1
20260510054850 56 292 1.0 2.0 0.00 0.00 0.00 9 1010.0
20260510054449 56 292 2.0 3.0 0.00 0.00 0.00 9 1010.1
20260510054040 55 292 1.0 2.0 0.00 0.00 0.00 9 1010.2
20260510053630 55 0 0.0 0.0 0.00 0.00 0.00 9 1010.1
20260510053214 56 292 0.0 1.0 0.00 0.00 0.00 9 1010.0
20260510052805 56 0 0.0 0.0 0.00 0.00 0.00 9 1010.1
20260510052803 56 0 0.0 0.0 0.00 0.00 0.00 9 1010.1
20260510052458 56 67 0.0 1.0 0.00 0.00 0.00 9 1010.0
20260510052427 56 67 0.0 1.0 0.00 0.00 0.00 9 1010.0
20260510052013 56 292 1.0 2.0 0.00 0.00 0.00 9 1009.8
20260510051531 55 292 1.0 2.0 0.00 0.00 0.00 9 1009.8
20260510051101 56 270 3.0 3.0 0.00 0.00 0.00 9 1009.8
20260510050609 56 270 2.0 3.0 0.00 0.00 0.00 9 1009.7
20260510050537 56 270 3.0 3.0 0.00 0.00 0.00 9 1009.8
20260510050121 56 247 2.0 3.0 0.00 0.00 0.00 9 1009.7
20260510045711 56 247 2.0 3.0 0.00 0.00 0.00 9 1009.7
20260510045709 56 247 2.0 3.0 0.00 0.00 0.00 9 1009.7
20260510045707 56 247 2.0 3.0 0.00 0.00 0.00 9 1009.7
20260510045541 56 247 2.0 3.0 0.00 0.00 0.00 9 1009.7
20260510045406 56 270 3.0 3.0 0.00 0.00 0.00 9 1009.7
20260510044922 56 247 3.0 4.0 0.00 0.00 0.00 9 1009.9
20260510044633 56 270 3.0 4.0 0.00 0.00 0.00 9 1009.8
20260510044455 56 315 1.0 3.0 0.00 0.00 0.00 9 1009.8
20260510044052 56 270 3.0 3.0 0.00 0.00 0.00 9 1009.8
20260510043708 56 270 2.0 3.0 0.00 0.00 0.00 9 1009.8
20260510043632 56 270 2.0 3.0 0.00 0.00 0.00 9 1009.8
20260510043207 57 270 3.0 4.0 0.00 0.00 0.00 9 1009.8
20260510042712 56 292 3.0 4.0 0.00 0.00 0.00 9 1009.7
20260510042425 56 292 2.0 2.0 0.00 0.00 0.00 9 1009.7
20260510042353 56 270 2.0 2.0 0.00 0.00 0.00 9 1009.7
20260510041857 56 270 3.0 4.0 0.00 0.00 0.00 9 1009.9
20260510041611 56 270 1.0 2.0 0.00 0.00 0.00 9 1009.7
20260510041445 56 247 2.0 3.0 0.00 0.00 0.00 9 1009.7
20260510041033 56 270 3.0 3.0 0.00 0.00 0.00 9 1009.8
20260510040703 56 270 3.0 4.0 0.00 0.00 0.00 9 1009.7
20260510040629 56 270 3.0 4.0 0.00 0.00 0.00 9 1009.7
20260510040200 56 247 2.0 3.0 0.00 0.00 0.00 9 1009.7
20260510035711 56 270 2.0 3.0 0.00 0.00 0.00 9 1009.7
20260510035341 56 270 3.0 4.0 0.00 0.00 0.00 9 1009.6
20260510034917 56 270 3.0 3.0 0.00 0.00 0.00 9 1009.5
20260510034444 56 225 2.0 3.0 0.00 0.00 0.00 9 1009.5
20260510034016 55 292 3.0 3.0 0.00 0.00 0.00 9 1009.6
20260510033649 56 292 3.0 3.0 0.00 0.00 0.00 9 1009.7
20260510033604 56 292 0.0 2.0 0.00 0.00 0.00 9 1009.6
20260510033156 57 292 2.0 3.0 0.00 0.00 0.00 9 1009.6
20260510032706 56 292 2.0 2.0 0.00 0.00 0.00 9 1009.4
20260510032704 56 292 2.0 2.0 0.00 0.00 0.00 9 1009.4
20260510032357 56 0 0.0 0.0 0.00 0.00 0.00 9 1009.3
20260510031942 56 225 2.0 2.0 0.00 0.00 0.00 9 1009.4
20260510031659 55 0 0.0 0.0 0.00 0.00 0.00 9 1009.4
20260510031529 55 0 0.0 0.0 0.00 0.00 0.00 9 1009.4
20260510031044 56 0 1.0 2.0 0.00 0.00 0.00 9 1009.5
20260510030700 55 247 0.0 1.0 0.00 0.00 0.00 9 1009.5
20260510030628 55 247 0.0 1.0 0.00 0.00 0.00 9 1009.5
20260510030203 55 0 0.0 1.0 0.00 0.00 0.00 9 1009.3
20260510025708 55 225 1.0 2.0 0.00 0.00 0.00 9 1009.3
20260510025538 55 225 1.0 2.0 0.00 0.00 0.00 9 1009.3
20260510025357 55 292 0.0 1.0 0.00 0.00 0.00 9 1009.3
20260510024924 55 315 2.0 3.0 0.00 0.00 0.00 9 1009.4
20260510024632 55 315 3.0 3.0 0.00 0.00 0.00 9 1009.4
20260510024454 56 270 1.0 2.0 0.00 0.00 0.00 9 1009.4
20260510024051 57 247 0.0 1.0 0.00 0.00 0.00 9 1009.4
20260510023631 56 270 1.0 2.0 0.00 0.00 0.00 9 1009.4
20260510023206 56 292 3.0 3.0 0.00 0.00 0.00 9 1009.4
20260510022711 56 225 1.0 2.0 0.00 0.00 0.00 9 1009.2
20260510022446 56 292 1.0 2.0 0.00 0.00 0.00 9 1009.2
20260510022004 55 292 1.0 2.0 0.00 0.00 0.00 9 1009.3
20260510021529 55 270 2.0 3.0 0.00 0.00 0.00 9 1009.4
20260510021043 55 247 3.0 4.0 0.00 0.00 0.00 9 1009.4
20260510020659 55 270 3.0 3.0 0.00 0.00 0.00 9 1009.4
20260510020626 55 270 3.0 3.0 0.00 0.00 0.00 9 1009.4
20260510020201 55 292 3.0 4.0 0.00 0.00 0.00 9 1009.3
20260510015706 55 292 3.0 3.0 0.00 0.00 0.00 9 1009.4
20260510015458 55 292 2.0 2.0 0.00 0.00 0.00 9 1009.4
20260510015011 56 292 0.0 1.0 0.00 0.00 0.00 9 1009.3
20260510014520 57 292 2.0 3.0 0.00 0.00 0.00 9 1009.4
20260510014051 56 270 3.0 3.0 0.00 0.00 0.00 9 1009.3
20260510013708 56 292 3.0 3.0 0.00 0.00 0.00 9 1009.4
20260510013633 56 292 3.0 3.0 0.00 0.00 0.00 9 1009.4
20260510013208 55 292 2.0 3.0 0.00 0.00 0.00 9 1009.5
20260510012713 55 292 2.0 3.0 0.00 0.00 0.00 9 1009.4
20260510012234 56 292 2.0 2.0 0.00 0.00 0.00 9 1009.5
20260510012140 55 270 2.0 3.0 0.00 0.00 0.00 9 1009.5
20260510011831 55 247 1.0 2.0 0.00 0.00 0.00 9 1009.5
20260510011358 55 292 1.0 2.0 0.00 0.00 0.00 9 1009.7
20260510011245 55 292 0.0 2.0 0.00 0.00 0.00 9 1009.5
20260510010922 55 0 0.0 1.0 0.00 0.00 0.00 9 1009.6
20260510010428 56 270 0.0 1.0 0.00 0.00 0.00 9 1009.7
20260510010003 56 270 2.0 3.0 0.00 0.00 0.00 9 1009.8
20260510005551 56 270 2.0 2.0 0.00 0.00 0.00 9 1009.9
20260510005452 56 270 2.0 2.0 0.00 0.00 0.00 9 1009.9
20260510005411 56 292 0.0 2.0 0.00 0.00 0.00 9 1009.8
20260510005047 56 292 1.0 2.0 0.00 0.00 0.00 9 1009.7
20260510004607 57 292 2.0 2.0 0.00 0.00 0.00 9 1010.0
20260510004533 57 292 2.0 2.0 0.00 0.00 0.00 9 1010.0
20260510004141 57 270 3.0 3.0 0.00 0.00 0.00 9 1010.0
20260510003646 57 225 1.0 2.0 0.00 0.00 0.00 9 1010.0
20260510003219 58 292 1.0 2.0 0.00 0.00 0.00 9 1009.9
20260510002754 57 270 3.0 3.0 0.00 0.00 0.00 9 1010.1
20260510002627 57 270 3.0 3.0 0.00 0.00 0.00 9 1010.1
20260510002401 57 270 2.0 3.0 0.00 0.00 0.00 9 1010.1
20260510001930 57 270 1.0 2.0 0.00 0.00 0.00 9 1010.1
20260510001652 57 270 0.0 1.0 0.00 0.00 0.00 9 1010.2
20260510001505 57 270 1.0 1.0 0.00 0.00 0.00 9 1010.1
20260510001040 57 247 2.0 2.0 0.00 0.00 0.00 9 1010.2
20260510000653 57 315 1.0 1.0 0.00 0.00 0.00 9 1010.2
20260510000621 57 315 1.0 1.0 0.00 0.00 0.00 9 1010.2
20260510000155 57 315 2.0 3.0 0.00 0.00 0.00 9 1010.2
20260509235701 58 292 1.0 2.0 0.00 0.00 0.00 9 1010.0
20260509235441 57 292 1.0 2.0 0.00 0.00 0.00 9 1009.9
20260509234954 58 292 2.0 3.0 0.00 0.00 0.00 9 1010.2
20260509234548 58 0 0.0 0.0 0.00 0.00 0.00 9 1010.2
20260509234510 58 0 0.0 0.0 0.00 0.00 0.00 9 1010.3
20260509234045 58 0 0.0 0.0 0.00 0.00 0.00 9 1010.2
20260509233700 58 225 1.0 2.0 0.00 0.00 0.00 9 1010.3
20260509233627 58 225 1.0 2.0 0.00 0.00 0.00 9 1010.3
20260509233202 58 0 0.0 1.0 0.00 0.00 0.00 9 1010.3
20260509232707 59 270 1.0 2.0 0.00 0.00 0.00 9 1010.3
20260509232254 59 270 2.0 2.0 0.00 0.00 0.00 9 1010.4
20260509232213 59 270 2.0 3.0 0.00 0.00 0.00 9 1010.4
20260509231851 59 270 2.0 3.0 0.00 0.00 0.00 9 1010.4
20260509231417 59 292 2.0 2.0 0.00 0.00 0.00 9 1010.4
20260509231318 59 292 2.0 3.0 0.00 0.00 0.00 9 1010.5
20260509230957 59 292 2.0 2.0 0.00 0.00 0.00 9 1010.5
20260509230451 59 292 2.0 2.0 0.00 0.00 0.00 9 1010.5
20260509230036 59 292 1.0 2.0 0.00 0.00 0.00 9 1010.5
20260509225623 59 315 1.0 2.0 0.00 0.00 0.00 9 1010.5
20260509225447 59 315 1.0 2.0 0.00 0.00 0.00 9 1010.5
20260509225423 59 315 1.0 2.0 0.00 0.00 0.00 9 1010.5
20260509225023 59 292 2.0 3.0 0.00 0.00 0.00 9 1010.5
20260509224523 59 292 4.0 6.0 0.00 0.00 0.00 9 1010.5
20260509224037 59 292 2.0 2.0 0.00 0.00 0.00 9 1010.6
20260509223602 59 270 0.0 1.0 0.00 0.00 0.00 9 1010.6
20260509223130 59 292 1.0 2.0 0.00 0.00 0.00 9 1010.6
20260509222640 59 292 1.0 2.0 0.00 0.00 0.00 9 1010.7
20260509222440 59 315 1.0 2.0 0.00 0.00 0.00 9 1010.8
20260509222301 59 292 1.0 2.0 0.00 0.00 0.00 9 1010.6
20260509222007 59 270 3.0 3.0 0.00 0.00 0.00 9 1010.7
20260509221543 59 270 4.0 6.0 0.00 0.00 0.00 9 1010.9
20260509221304 59 270 3.0 4.0 0.00 0.00 0.00 9 1010.7
20260509221102 59 270 2.0 3.0 0.00 0.00 0.00 9 1010.7
20260509220658 59 270 4.0 6.0 0.00 0.00 0.00 9 1010.7
20260509220413 59 315 4.0 6.0 0.00 0.00 0.00 9 1010.6
20260509220250 59 337 6.0 9.0 0.00 0.00 0.00 9 1010.5
20260509215842 59 292 3.0 4.0 0.00 0.00 0.00 9 1010.7
20260509215519 59 292 3.0 3.0 0.00 0.00 0.00 9 1010.6
20260509215344 59 270 3.0 4.0 0.00 0.00 0.00 9 1010.5
20260509214922 59 292 1.0 2.0 0.00 0.00 0.00 9 1010.3
20260509214554 59 315 2.0 3.0 0.00 0.00 0.00 9 1010.2
20260509214457 59 315 2.0 2.0 0.00 0.00 0.00 9 1010.3
20260509214052 59 292 2.0 3.0 0.00 0.00 0.00 9 1010.3
20260509213706 59 337 2.0 3.0 0.00 0.00 0.00 9 1010.2
20260509213632 59 337 2.0 3.0 0.00 0.00 0.00 9 1010.1
20260509213207 59 0 0.0 0.0 0.00 0.00 0.00 9 1010.1
20260509212712 59 0 0.0 0.0 0.00 0.00 0.00 9 1009.9
20260509212416 59 112 0.0 1.0 0.00 0.00 0.00 9 1009.9
20260509212217 59 112 1.0 2.0 0.00 0.00 0.00 9 1009.9
20260509211726 59 112 2.0 3.0 0.00 0.00 0.00 9 1009.9
20260509211458 59 112 2.0 2.0 0.00 0.00 0.00 9 1010.0
20260509211310 59 112 2.0 2.0 0.00 0.00 0.00 9 1010.0
20260509210905 59 0 0.0 0.0 0.00 0.00 0.00 9 1010.0
20260509210506 59 157 0.0 1.0 0.00 0.00 0.00 9 1010.3
20260509210458 59 202 0.0 1.0 0.00 0.00 0.00 9 1010.3
20260509210040 59 270 1.0 2.0 0.00 0.00 0.00 9 1010.5
20260509205629 59 0 0.0 1.0 0.00 0.00 0.00 9 1010.5
20260509205349 59 247 0.0 2.0 0.00 0.00 0.00 9 1010.4
20260509205300 59 0 0.0 1.0 0.00 0.00 0.00 9 1010.4
20260509204857 59 0 0.0 1.0 0.00 0.00 0.00 9 1010.4
20260509204541 59 0 0.0 0.0 0.00 0.00 0.00 9 1010.6
20260509204437 59 292 0.0 1.0 0.00 0.00 0.00 9 1010.5
20260509204032 59 292 1.0 2.0 0.00 0.00 0.00 9 1010.4
20260509203647 59 292 3.0 3.0 0.00 0.00 0.00 9 1010.5
20260509203612 59 292 2.0 2.0 0.00 0.00 0.00 9 1010.4
20260509203146 59 270 2.0 2.0 0.00 0.00 0.00 9 1010.4
20260509202652 59 0 0.0 0.0 0.00 0.00 0.00 9 1010.0
20260509202311 59 0 0.0 0.0 0.00 0.00 0.00 9 1010.0
20260509201857 60 0 0.0 0.0 0.00 0.00 0.00 9 1009.9
20260509201413 60 0 0.0 0.0 0.00 0.00 0.00 9 1010.0
20260509200940 60 0 0.0 0.0 0.00 0.00 0.00 9 1010.0
20260509200451 60 270 1.0 2.0 0.00 0.00 0.00 9 1009.9
20260509200419 60 270 1.0 2.0 0.00 0.00 0.00 9 1009.9
20260509200003 59 270 1.0 2.0 0.00 0.00 0.00 9 1009.9
20260509195552 59 270 2.0 3.0 0.00 0.00 0.00 9 1009.9
20260509195344 59 270 2.0 2.0 0.00 0.00 0.00 9 1009.9
20260509194913 60 0 0.0 0.0 0.00 0.00 0.00 9 1009.7
20260509194546 60 0 0.0 0.0 0.00 0.00 0.00 9 1009.6
20260509194503 60 0 0.0 0.0 0.00 0.00 0.00 9 1009.5
20260509194029 59 0 0.0 0.0 0.00 0.00 0.00 9 1009.4
20260509193546 59 0 0.0 0.0 0.00 0.00 0.00 9 1009.4
20260509193128 59 0 0.0 0.0 0.00 0.00 0.00 9 1009.3
20260509192717 59 90 0.0 1.0 0.00 0.00 0.00 9 1009.2
20260509192340 60 90 1.0 3.0 0.00 0.00 0.00 9 1009.1
20260509192305 60 90 1.0 2.0 0.00 0.00 0.00 9 1009.0
20260509191909 60 90 1.0 3.0 0.00 0.00 0.00 9 1009.0
20260509191503 60 112 5.0 6.0 0.00 0.00 0.00 9 1008.8
20260509191406 60 112 3.0 4.0 0.00 0.00 0.00 9 1008.8
20260509191045 60 112 3.0 4.0 0.00 0.00 0.00 9 1008.7
20260509190539 60 135 3.0 4.0 0.00 0.00 0.00 9 1008.8
20260509190123 60 90 1.0 2.0 0.00 0.00 0.00 9 1008.8
20260509185716 61 90 2.0 3.0 0.00 0.00 0.00 9 1008.7
20260509185714 61 90 2.0 3.0 0.00 0.00 0.00 9 1008.7
20260509185436 61 112 2.0 3.0 0.00 0.00 0.00 9 1008.7
20260509185306 61 90 3.0 4.0 0.00 0.00 0.00 9 1008.8
20260509185023 61 90 3.0 4.0 0.00 0.00 0.00 9 1008.8
20260509184539 61 90 3.0 4.0 0.00 0.00 0.00 9 1008.6
20260509184411 61 90 3.0 3.0 0.00 0.00 0.00 9 1008.8
20260509184109 61 90 2.0 3.0 0.00 0.00 0.00 9 1008.7
20260509183617 62 67 2.0 3.0 0.00 0.00 0.00 9 1008.4
20260509183129 62 67 2.0 3.0 0.00 0.00 0.00 9 1008.4
20260509182714 62 90 3.0 4.0 0.00 0.00 0.00 9 1008.1
20260509182301 62 112 6.0 6.0 0.00 0.00 0.00 8 1008.1
20260509182211 62 112 4.0 6.0 0.00 0.00 0.00 8 1007.9
20260509181812 62 112 5.0 6.0 0.00 0.00 0.00 8 1007.9
20260509181354 62 112 5.0 8.0 0.00 0.00 0.00 8 1007.7
20260509180948 62 112 3.0 6.0 0.00 0.00 0.00 8 1007.9
20260509180631 62 112 4.0 6.0 0.00 0.00 0.00 8 1007.9
20260509180541 62 112 4.0 6.0 0.00 0.00 0.00 8 1007.9
20260509180123 62 90 5.0 6.0 0.00 0.00 0.00 8 1008.0
20260509175714 62 112 4.0 6.0 0.00 0.00 0.00 8 1007.9
20260509175432 62 90 4.0 6.0 0.00 0.00 0.00 8 1007.9
20260509175001 63 112 6.0 8.0 0.00 0.00 0.00 8 1007.8
20260509174624 63 112 4.0 6.0 0.00 0.00 0.00 8 1007.6
20260509174517 63 112 4.0 6.0 0.00 0.00 0.00 8 1007.6
20260509174054 63 135 3.0 4.0 0.00 0.00 0.00 8 1007.7
20260509173711 63 112 3.0 6.0 0.00 0.00 0.00 8 1007.8
20260509173635 63 112 3.0 6.0 0.00 0.00 0.00 8 1007.8
20260509173210 63 112 4.0 6.0 0.00 0.00 0.00 8 1007.9
20260509172718 63 90 5.0 6.0 0.00 0.00 0.00 8 1007.9
20260509172714 63 90 5.0 6.0 0.00 0.00 0.00 8 1007.9
20260509172335 63 90 4.0 6.0 0.00 0.00 0.00 8 1007.9
20260509171906 63 112 6.0 8.0 0.00 0.00 0.00 8 1007.9
20260509171422 64 112 7.0 9.0 0.00 0.00 0.00 8 1007.9
20260509171000 63 90 7.0 10.0 0.00 0.00 0.00 8 1007.8
20260509170511 63 112 5.0 8.0 0.00 0.00 0.00 8 1007.8
20260509170043 63 112 6.0 9.0 0.00 0.00 0.00 8 1007.8
20260509165634 64 90 4.0 6.0 0.00 0.00 0.00 8 1007.6
20260509165555 64 90 4.0 6.0 0.00 0.00 0.00 8 1007.6
20260509165552 64 90 4.0 6.0 0.00 0.00 0.00 8 1007.6
20260509165101 63 90 8.0 11.0 0.00 0.00 0.00 8 1007.6
20260509164630 63 112 6.0 8.0 0.00 0.00 0.00 8 1007.6
20260509163842 64 135 4.0 6.0 0.00 0.00 0.00 8 1007.6
20260509163341 64 112 6.0 10.0 0.00 0.00 0.00 8 1007.4
20260509162849 64 135 4.0 9.0 0.00 0.00 0.00 8 1007.5
20260509162718 64 90 5.0 8.0 0.00 0.00 0.00 8 1007.5
20260509162300 64 112 6.0 9.0 0.00 0.00 0.00 8 1007.5
20260509161827 64 112 3.0 6.0 0.00 0.00 0.00 8 1007.4
20260509161815 65 90 5.0 6.0 0.00 0.00 0.00 8 1007.3
20260509161425 64 90 3.0 6.0 0.00 0.00 0.00 8 1007.5
20260509160954 65 67 7.0 10.0 0.00 0.00 0.00 8 1007.4
20260509160518 66 90 4.0 6.0 0.00 0.00 0.00 8 1007.4
20260509160055 66 90 7.0 10.0 0.00 0.00 0.00 7 1007.2
20260509160052 66 90 7.0 10.0 0.00 0.00 0.00 7 1007.2
20260509155619 68 90 8.0 11.0 0.00 0.00 0.00 7 1007.4
20260509155127 68 90 3.0 6.0 0.00 0.00 0.00 7 1007.3
20260509155102 68 67 4.0 6.0 0.00 0.00 0.00 7 1007.4
20260509154634 69 90 1.0 4.0 0.00 0.00 0.00 7 1007.3
20260509154143 69 90 0.0 1.0 0.00 0.00 0.00 7 1007.4
20260509153731 68 67 1.0 3.0 0.00 0.00 0.00 7 1007.5
20260509153328 67 112 1.0 3.0 0.00 0.00 0.00 7 1007.4
20260509153324 67 112 1.0 3.0 0.00 0.00 0.00 7 1007.4
20260509153206 67 112 1.0 3.0 0.00 0.00 0.00 7 1007.4
20260509152714 67 90 3.0 4.0 0.00 0.00 0.00 7 1007.4
20260509152711 67 90 3.0 4.0 0.00 0.00 0.00 7 1007.4
20260509152400 67 112 2.0 3.0 0.00 0.00 0.00 7 1007.4
20260509151915 67 67 0.0 1.0 0.00 0.00 0.00 7 1007.3
20260509151557 65 90 3.0 4.0 0.00 0.00 0.00 7 1007.2
20260509151449 65 112 2.0 3.0 0.00 0.00 0.00 7 1007.2
20260509151045 65 90 2.0 2.0 0.00 0.00 0.00 7 1007.3
20260509150625 65 90 3.0 3.0 0.00 0.00 0.00 7 1007.2
20260509150200 65 112 3.0 4.0 0.00 0.00 0.00 7 1007.2
20260509145709 66 90 2.0 3.0 0.00 0.00 0.00 7 1007.2
20260509145705 66 90 2.0 3.0 0.00 0.00 0.00 7 1007.2
20260509145409 65 0 1.0 2.0 0.00 0.00 0.00 7 1007.3
20260509144950 65 45 0.0 2.0 0.00 0.00 0.00 7 1007.3
20260509144602 65 90 3.0 3.0 0.00 0.00 0.00 7 1007.2
20260509144531 65 90 3.0 3.0 0.00 0.00 0.00 7 1007.2
20260509144047 66 67 1.0 3.0 0.00 0.00 0.00 7 1007.2
20260509143708 66 112 5.0 9.0 0.00 0.00 0.00 7 1007.3
20260509143630 66 112 5.0 9.0 0.00 0.00 0.00 7 1007.3
20260509143206 65 67 2.0 3.0 0.00 0.00 0.00 8 1007.3
20260509142715 65 90 3.0 4.0 0.00 0.00 0.00 8 1007.3
20260509142711 65 90 3.0 4.0 0.00 0.00 0.00 8 1007.3
20260509142359 64 112 2.0 4.0 0.00 0.00 0.00 8 1007.3
20260509141956 63 90 4.0 6.0 0.00 0.00 0.00 8 1007.3
20260509141531 62 112 4.0 6.0 0.00 0.00 0.00 8 1007.4
20260509141414 61 67 4.0 6.0 0.00 0.00 0.00 9 1007.4
20260509141113 60 90 5.0 6.0 0.00 0.00 0.00 9 1007.5
20260509140613 61 112 5.0 8.0 0.00 0.00 0.00 9 1007.4
20260509140539 61 90 3.0 4.0 0.00 0.00 0.00 9 1007.5
20260509140122 60 90 5.0 6.0 0.00 0.00 0.00 9 1007.5
20260509135714 59 112 3.0 6.0 0.00 0.00 0.00 9 1007.6
20260509135710 59 112 3.0 6.0 0.00 0.00 0.00 9 1007.6
20260509135452 60 90 6.0 8.0 0.00 0.00 0.00 9 1007.6
20260509135008 60 90 2.0 3.0 0.00 0.00 0.00 9 1007.5
20260509134518 59 90 3.0 4.0 0.00 0.00 0.00 9 1007.5
20260509134448 59 112 4.0 6.0 0.00 0.00 0.00 9 1007.4
20260509134046 60 90 3.0 6.0 0.00 0.00 0.00 9 1007.4
20260509133534 60 90 2.0 6.0 0.00 0.00 0.00 9 1007.3
20260509133123 59 112 5.0 6.0 0.00 0.00 0.00 9 1007.3
20260509132717 59 90 6.0 8.0 0.00 0.00 0.00 9 1007.1
20260509132715 59 90 6.0 8.0 0.00 0.00 0.00 9 1007.1
20260509132713 59 90 6.0 8.0 0.00 0.00 0.00 9 1007.1
20260509132442 59 90 3.0 4.0 0.00 0.00 0.00 9 1007.1
20260509132000 59 112 7.0 10.0 0.00 0.00 0.00 9 1006.7
20260509131512 59 112 3.0 6.0 0.00 0.00 0.00 9 1006.9
20260509131040 59 90 3.0 6.0 0.00 0.00 0.00 9 1007.0
20260509130654 59 112 5.0 6.0 0.00 0.00 0.00 9 1006.9
20260509130622 59 112 5.0 6.0 0.00 0.00 0.00 9 1006.9
20260509130157 59 90 1.0 3.0 0.00 0.00 0.00 9 1007.5
20260509125706 59 112 5.0 8.0 0.00 0.00 0.00 9 1007.5
20260509125702 59 112 5.0 8.0 0.00 0.00 0.00 9 1007.5
20260509125502 59 112 9.0 10.0 0.00 0.00 0.00 9 1007.3
20260509125008 59 337 1.0 3.0 0.00 0.00 0.00 9 1008.2
20260509124516 59 0 0.0 0.0 0.00 0.00 0.00 9 1008.8
20260509124041 59 337 0.0 1.0 0.00 0.00 0.00 9 1008.8
20260509123547 59 315 1.0 2.0 0.00 0.00 0.00 9 1008.8
20260509123122 59 292 2.0 2.0 0.00 0.00 0.00 9 1008.9
20260509122710 59 315 3.0 3.0 0.00 0.00 0.00 9 1009.1
20260509122411 59 315 2.0 2.0 0.00 0.00 0.00 9 1009.0
20260509121951 59 270 2.0 3.0 0.00 0.00 0.00 9 1009.0
20260509121532 59 270 0.0 1.0 0.00 0.00 0.00 9 1009.0
20260509121049 59 292 2.0 3.0 0.00 0.00 0.00 9 1008.9
20260509120705 59 292 2.0 3.0 0.00 0.00 0.00 9 1008.7
20260509120631 59 292 2.0 3.0 0.00 0.00 0.00 9 1008.7
20260509120206 58 0 0.0 0.0 0.00 0.00 0.00 9 1008.8
20260509115715 58 337 0.0 1.0 0.02 0.00 0.00 9 1008.8
20260509115711 58 337 0.0 1.0 0.02 0.00 0.00 9 1008.8
20260509115321 58 315 1.0 2.0 0.02 0.00 0.00 9 1008.9
20260509115247 58 315 1.0 2.0 0.02 0.00 0.00 9 1008.9
20260509114818 59 0 0.0 0.0 0.02 0.00 0.00 9 1009.0
20260509114402 58 270 2.0 2.0 0.02 0.00 0.00 9 1009.2
20260509113933 58 337 1.0 1.0 0.02 0.00 0.00 9 1009.4
20260509113443 58 337 0.0 1.0 0.02 0.00 0.00 9 1009.3
20260509113031 58 315 1.0 2.0 0.02 0.00 0.00 9 1009.2
20260509112629 58 315 1.0 2.0 0.02 0.00 0.00 9 1009.1
20260509112625 58 315 1.0 2.0 0.02 0.00 0.00 9 1009.1
20260509112320 58 247 3.0 4.0 0.02 0.00 0.00 9 1009.0
20260509112247 58 247 3.0 4.0 0.02 0.00 0.00 9 1009.0
20260509111807 58 315 5.0 6.0 0.02 0.00 0.00 9 1009.0
20260509111455 58 315 2.0 3.0 0.02 0.00 0.00 9 1009.2
20260509111348 58 337 3.0 4.0 0.02 0.00 0.00 9 1009.1
20260509110911 58 225 1.0 2.0 0.02 0.00 0.00 9 1009.0
20260509110534 58 292 2.0 3.0 0.02 0.00 0.00 9 1008.9
20260509110415 58 292 3.0 4.0 0.02 0.00 0.00 9 1008.9
20260509105917 58 270 1.0 3.0 0.00 0.00 0.00 9 1008.6
20260509105640 58 270 3.0 6.0 0.00 0.00 0.00 9 1008.6
20260509105457 58 315 3.0 4.0 0.00 0.00 0.00 9 1008.4
20260509105011 58 292 3.0 4.0 0.00 0.00 0.00 9 1008.1
20260509104522 57 270 2.0 3.0 0.00 0.00 0.00 9 1007.8
20260509104050 59 292 0.0 2.0 0.00 0.00 0.00 9 1007.9
20260509103632 60 90 4.0 6.0 0.00 0.00 0.00 9 1007.9
20260509103207 60 292 1.0 2.0 0.00 0.00 0.00 9 1007.6
20260509102715 60 292 2.0 3.0 0.00 0.00 0.00 9 1007.5
20260509102712 60 292 2.0 3.0 0.00 0.00 0.00 9 1007.5
20260509102552 60 292 1.0 2.0 0.00 0.00 0.00 9 1007.7
20260509102138 60 292 1.0 2.0 0.00 0.00 0.00 9 1007.6
20260509101638 60 292 3.0 3.0 0.00 0.00 0.00 9 1007.4
20260509101238 60 0 0.0 2.0 0.00 0.00 0.00 9 1007.6
20260509100828 60 315 0.0 1.0 0.00 0.00 0.00 9 1007.5
20260509100421 60 292 1.0 2.0 0.00 0.00 0.00 9 1007.5
20260509100002 60 0 0.0 0.0 0.00 0.00 0.00 9 1007.4
20260509095553 60 0 0.0 0.0 0.00 0.00 0.00 9 1007.4
20260509095550 60 0 0.0 0.0 0.00 0.00 0.00 9 1007.4
20260509095444 60 0 0.0 0.0 0.00 0.00 0.00 9 1007.4
20260509095040 60 0 0.0 0.0 0.00 0.00 0.00 9 1007.6
20260509094645 60 202 0.0 2.0 0.00 0.00 0.00 9 1007.6
20260509094555 60 292 0.0 2.0 0.00 0.00 0.00 9 1007.7
20260509094131 60 292 3.0 4.0 0.00 0.00 0.00 9 1007.6
20260509093751 60 270 3.0 6.0 0.00 0.00 0.00 9 1007.8
20260509093712 60 270 3.0 6.0 0.00 0.00 0.00 9 1007.8
20260509093248 61 270 1.0 3.0 0.00 0.00 0.00 9 1007.4
20260509092753 60 90 2.0 3.0 0.00 0.00 0.00 9 1006.6
20260509092331 60 67 2.0 3.0 0.00 0.00 0.00 9 1006.7
20260509092305 60 112 3.0 4.0 0.00 0.00 0.00 9 1006.7
20260509091931 60 67 2.0 3.0 0.00 0.00 0.00 9 1006.9
20260509091450 60 67 3.0 6.0 0.00 0.00 0.00 9 1006.4
20260509091400 60 67 3.0 4.0 0.00 0.00 0.00 9 1006.6
20260509091015 60 45 1.0 2.0 0.00 0.00 0.00 9 1007.2
20260509090531 60 0 0.0 0.0 0.00 0.00 0.00 9 1008.0
20260509090113 60 315 1.0 2.0 0.00 0.00 0.00 9 1007.6
20260509085707 60 270 2.0 2.0 0.00 0.00 0.00 9 1007.1
20260509085704 60 270 2.0 2.0 0.00 0.00 0.00 9 1007.1
20260509085442 60 292 1.0 2.0 0.00 0.00 0.00 9 1007.5
20260509085333 60 292 2.0 3.0 0.00 0.00 0.00 9 1007.7
20260509084914 60 292 4.0 6.0 0.00 0.00 0.00 9 1007.9
20260509084454 60 292 2.0 3.0 0.00 0.00 0.00 9 1007.7
20260509084010 60 337 0.0 1.0 0.00 0.00 0.00 9 1007.4
20260509083627 60 0 0.0 0.0 0.00 0.00 0.00 9 1007.0
20260509083554 60 337 0.0 2.0 0.00 0.00 0.00 9 1006.7
20260509083129 60 315 2.0 3.0 0.00 0.00 0.00 9 1007.4
20260509082637 60 270 4.0 6.0 0.00 0.00 0.00 9 1007.5
20260509082634 60 270 4.0 6.0 0.00 0.00 0.00 9 1007.5
20260509082324 60 292 3.0 3.0 0.00 0.00 0.00 9 1007.1
20260509081842 60 337 2.0 2.0 0.00 0.00 0.00 9 1006.5
20260509081535 60 0 0.0 1.0 0.00 0.00 0.00 9 1007.0
20260509081406 60 0 0.0 1.0 0.00 0.00 0.00 9 1007.1
20260509080921 60 0 3.0 3.0 0.00 0.00 0.00 9 1007.6
20260509080536 60 22 1.0 2.0 0.00 0.00 0.00 9 1007.6
20260509080504 60 22 1.0 2.0 0.00 0.00 0.00 9 1007.6
20260509080039 59 0 0.0 0.0 0.00 0.00 0.00 9 1007.7
20260509075545 59 0 0.0 1.0 0.00 0.00 0.00 9 1008.0
20260509075434 59 0 0.0 1.0 0.00 0.00 0.00 9 1008.0
20260509074957 59 0 0.0 1.0 0.00 0.00 0.00 9 1008.0
20260509074552 60 22 3.0 3.0 0.00 0.00 0.00 9 1007.8
20260509074134 60 0 0.0 0.0 0.00 0.00 0.00 9 1007.8
20260509073639 60 202 1.0 2.0 0.00 0.00 0.00 9 1007.9
20260509073213 60 292 2.0 2.0 0.00 0.00 0.00 9 1007.7
20260509072759 59 270 3.0 4.0 0.00 0.00 0.00 9 1008.0
20260509072631 59 270 3.0 4.0 0.00 0.00 0.00 9 1008.0
20260509072356 59 270 3.0 6.0 0.00 0.00 0.00 9 1007.9
20260509071912 60 270 4.0 6.0 0.00 0.00 0.00 9 1007.6
20260509071447 59 270 3.0 3.0 0.00 0.00 0.00 9 1007.4
20260509071042 60 292 2.0 3.0 0.00 0.00 0.00 9 1007.4
20260509070657 60 337 1.0 2.0 0.00 0.00 0.00 9 1007.4
20260509070622 60 337 1.0 2.0 0.00 0.00 0.00 9 1007.4
20260509070157 60 22 0.0 1.0 0.00 0.00 0.00 9 1007.9
20260509065702 60 337 1.0 2.0 0.00 0.00 0.00 9 1007.8
20260509065511 60 337 2.0 2.0 0.00 0.00 0.00 9 1007.9
20260509065418 60 315 2.0 2.0 0.00 0.00 0.00 9 1007.8
20260509064923 60 45 2.0 4.0 0.00 0.00 0.00 9 1008.0
20260509064535 60 292 3.0 4.0 0.00 0.00 0.00 9 1008.0
20260509064450 60 292 3.0 4.0 0.00 0.00 0.00 9 1008.2
20260509064048 60 292 3.0 3.0 0.00 0.00 0.00 9 1008.1
20260509063704 60 292 3.0 3.0 0.00 0.00 0.00 9 1008.3
20260509063628 60 292 3.0 3.0 0.00 0.00 0.00 9 1008.3
20260509063203 60 292 4.0 6.0 0.00 0.00 0.00 9 1008.2
20260509062711 61 292 0.0 2.0 0.00 0.00 0.00 9 1007.9
20260509062708 61 292 0.0 2.0 0.00 0.00 0.00 9 1007.9
20260509062547 61 0 0.0 0.0 0.00 0.00 0.00 9 1007.4
20260509062309 61 0 0.0 0.0 0.00 0.00 0.00 9 1007.2
20260509061855 60 270 3.0 6.0 0.00 0.00 0.00 9 1006.9